www.pogodaiklimat.ru

Погода и климат >> Архив погоды >> Ирак >> Хелла


ПОГОДА в Хелле

  • Прогноз погоды в Хелле
  • Монитор погоды в Хелле

АРХИВ ПОГОДЫ в Хелле

Время (UTC), дата Ветер
(напр.,м/с)
 
Видим.   Явления Облачность Т
(С)
Тd
(С)
f
(%)
Тe
(С)
Тes
(С)
Комфортность P
(гПа)
Po
(гПа)
Тmin
(С)
Tmax
(С)
R
(мм)
R24
(мм)
S
(см)
06 13.08 штиль 0 10 км 8/5 1050 м
[Cu hum Ac trans]
+34.4 +16.1 34 +37 +42 очень
душно
996.8 993.8 +29.5
09 13.08 штиль 0 10 км 5/5 1050 м
[Cu hum]
+44.4 +19.1 24 +49 +62 опасность
перегрева
997.2 994.3
12 13.08 штиль 0 10 км 3/3 1050 м
[Cu hum]
+47.2 +17.8 19 +50 +61 опасность
перегрева
996.5 993.6
15 13.08 штиль 0 10 км 8/8 1050 м
[Cu Sc]
+42.4 +19.8 28 +48 +48 опасность
перегрева
996.3 993.4
18 13.08 штиль 0 10 км 8/8 1050 м
[Sc]
+39.0 +12.1 20 +38 +38 очень
жарко
997.5 994.6 +47.6
21 13.08 штиль 0 10 км 8/8 1050 м
[Sc]
+39.2 +10.8 18 +38 +38 очень
жарко
997.9 995.0
06 14.08 СЗ 4 10 км 3/0
[Ac trans]
+36.0 +15.4 29 +38 +44 очень
душно
1000.8 997.8 +30.0
09 14.08 СЗ 4 10 км 5/0
[Ac trans]
+44.0 +18.9 24 +48 +57 опасность
перегрева
1001.3 998.4
12 14.08 СЗ 4 10 км 4/0
[Ac trans]
+47.2 +19.2 21 +52 +57 опасность
перегрева
999.7 996.8
15 14.08 штиль 0 10 км 4/0
[Ac trans]
+44.2 +18.1 23 +48 +48 опасность
перегрева
999.1 996.2
18 14.08 штиль 0 10 км 8/0
[Ac trans]
+36.2 +21.6 43 +44 +44 опасность
перегрева
1000.0 997.0 +47.6
00 15.08 штиль 0 10 км 4/0
[Ac trans]
+33.2 +13.6 31 +34 +34 очень
жарко
1000.1 997.1
03 15.08 штиль 0 10 км 5/0
[Ac trans]
+31.4 +13.0 33 +32 +33 жарко 1001.7 998.7
06 15.08 С 5 10 км 4/0
[Ac trans]
+34.4 +14.3 30 +36 +40 душно 1002.2 999.2 +30.4
09 15.08 СЗ 5 10 км 4/0
[Ac trans]
+42.0 +17.5 24 +45 +52 опасность
перегрева
1002.1 999.2
12 15.08 СЗ 6 10 км 3/0
[Ac trans]
+44.8 +17.1 20 +47 +50 опасность
перегрева
1000.0 997.1
15 15.08 С 3 10 км 3/0
[Ac trans]
+41.4 +19.6 29 +46 +47 опасность
перегрева
999.6 996.7
18 15.08 штиль 0 10 км 3/0
[Ac trans]
+35.6 +14.8 29 +37 +37 душно 1001.0 998.0 +45.2
21 15.08 штиль 0 10 км ясно +32.6 +11.5 28 +33 +33 жарко 1002.0 999.0
00 16.08 штиль 0 10 км ясно +31.4 +9.5 26 +31 +31 жарко 1001.9 998.9
03 16.08 штиль 0 10 км ясно +28.6 +9.2 30 +29 +29 жарко 1002.7 999.6
06 16.08 З 2 10 км ясно +33.4 +16.0 35 +36 +47 очень
душно
1003.2 1000.2 +27.8
12 16.08 С 6 10 км ясно +42.8 +14.1 19 +43 +48 опасность
перегрева
1000.9 998.0
15 16.08 СЗ 2 10 км ясно +39.8 +14.5 23 +41 +41 опасность
перегрева
1000.0 997.1
18 16.08 штиль 0 10 км ясно +32.8 +14.7 34 +35 +35 душно 1001.4 998.4 +43.5
21 16.08 СЗ 2 10 км ясно +29.4 +11.9 34 +30 +30 жарко 1001.6 998.5
00 17.08 штиль 0 10 км ясно +29.0 +9.3 29 +29 +29 жарко 1000.8 997.7
03 17.08 штиль 0 10 км ясно +25.4 +13.9 49 +28 +28 жарко 1001.0 997.9
06 17.08 СЗ 8 10 км ясно +31.4 +12.9 32 +32 +34 жарко 1001.7 998.7 +25.0
09 17.08 С 2 10 км ясно +39.4 +15.7 25 +41 +61 опасность
перегрева
1001.2 998.2
12 17.08 С 6 10 км ясно +41.6 +13.6 19 +42 +46 опасность
перегрева
999.6 996.7
15 17.08 штиль 0 10 км ясно +37.8 +14.5 25 +39 +39 очень
душно
998.4 995.4
18 17.08 штиль 0 10 км ясно +31.8 +16.2 39 +35 +35 очень
душно
999.0 996.0 +41.8
21 17.08 штиль 0 10 км ясно +29.0 +17.7 51 +33 +33 очень
душно
998.8 995.8
00 18.08 штиль 0 10 км ясно +27.8 +17.0 52 +32 +32 душно 998.5 995.4
03 18.08 штиль 0 10 км ясно +27.6 +14.7 45 +30 +30 жарко 999.6 996.5
06 18.08 С 5 10 км ясно +32.2 +16.8 40 +36 +41 очень
душно
1000.9 997.9 +26.8
09 18.08 С 5 10 км ясно +40.0 +19.2 30 +44 +55 опасность
перегрева
1001.0 998.1
15 18.08 штиль 0 10 км ясно +40.0 +16.2 25 +42 +42 опасность
перегрева
1000.9 998.0
18 18.08 штиль 0 10 км ясно +33.0 +18.6 43 +38 +38 очень
душно
1001.8 998.8 +42.6
21 18.08 штиль 0 10 км ясно +30.0 +17.4 47 +34 +34 очень
душно
1001.8 998.8
00 19.08 штиль 0 10 км ясно +28.2 +16.2 48 +31 +31 душно 1001.4 998.3
03 19.08 штиль 0 10 км ясно +26.6 +16.6 54 +30 +30 душно 1003.0 999.9
06 19.08 штиль 0 10 км ясно +32.8 +17.6 40 +37 +51 опасность
солнечного
удара
1004.4 1001.4 +26.2
09 19.08 штиль 0 10 км ясно +41.4 +17.0 24 +44 +70 опасность
перегрева
1004.3 1001.4
12 19.08 штиль 0 10 км ясно +43.0 +12.4 17 +43 +57 опасность
перегрева
1003.2 1000.3
15 19.08 штиль 0 10 км ясно +40.2 +13.7 21 +40 +41 очень
жарко
1002.7 999.8
18 19.08 штиль 0 10 км ясно +32.2 +16.8 40 +36 +36 очень
душно
1003.5 1000.5 +44.2
21 19.08 штиль 0 10 км ясно +28.6 +16.8 49 +32 +32 душно 1003.5 1000.4
00 20.08 штиль 0 10 км ясно +27.6 +15.5 48 +31 +31 душно 1003.0 999.9

 

Местоположение метеостанции Хелла (Ирак): широта 32.45 долгота 44.45 высота над уровнем моря 27 м.

В архиве по умолчанию представлена погода в Хелле за последнюю неделю. Архивные данные за месяц целиком и за предыдущие месяцы, начиная с января 2011 года, Вы можете получить, выбрав интересующий диапазон дат из раскрывающегося списка и нажав кнопку "Ввод!".


*Определитесь, кто Вы:
робот инопланетянин человек

Внимание! Время в таблицах - всемирное. Для получения местного времени необходимо прибавить поправку, которая равна 3 ч.

Смотрите также архив погоды в соседних городах и на ближайших метеорологических станциях:

Погода в Кербеле (Ирак) (45 км)
Погода в Наджафе (Ирак) (54 км)
Погода в Дивании (Ирак) (72 км)
Погода в Эль-Азизии (Ирак) (78 км)
Погода в Багдаде (Ирак) (89 км)
Погода в Убайда Бин Аль Джарра (Ирак) (122 км)
Погода в Айн Аль-Тамаре (Ирак) (125 км)
Погода в Хите (Ирак) (147 км)
Погода в Эс-Самаве (Ирак) (150 км)
Погода в Эр-Рамади (Ирак) (153 км)

Пояснения к столбцам:

Ветер - указаны скорость ветра в м/с - средняя за 10 мин, порывы в срок и между сроками (в фигурных скобках) и направление, откуда дует ветер: С - северный, СВ - северо-восточный, В - восточный, ЮВ - юго-восточный, Ю - южный, ЮЗ - юго-западный, З - западный, СЗ - северо-западный.
Видимость - горизонтальная дальность видимости в метрах или километрах. При видимости от 1 до 10 км при отсутствии осадков обычно наблюдается дымка, при ухудшении видимости до 1 км и менее - туман. В сухую погоду видимость может ухудшаться дымом, пылью или мглою.
Явления - указаны атмосферные явления, наблюдавшиеся в срок или в последний час перед сроком; фигурными скобками обозначены явления, наблюдавшиеся между сроками (за 1-3 часа до срока); квадратными скобками обозначены град или гололедные отложения с указанием их диаметра в мм.
Облачность - указаны через наклонную черту общая и нижняя облачность в баллах и высота нижней границы облаков в метрах; квадратными скобками обозначены формы облаков: Ci - перистые, Cs - перисто-слоистые, Cc - перисто-кучевые, Ac - высококучевые, As - высокослоистые, Sc - слоисто-кучевые, Ns - слоисто-дождевые, Cu - кучевые, Cb - кучево-дождевые. Подробнее классификацию облаков см. в Атласе облаков (PDF).
T - Температура воздуха - температура, измеренная на высоте 2 м над землей.
Td - Температура точки росы - температура, при понижении до которой содержащийся в воздухе водяной пар достигнет насыщения.
f - Относительная влажность воздуха - влажноcть воздуха, измеренная на высоте 2 м над землей.
Te - Эффективная температура - температура, которую ощущает одетый по сезону человек в тени. Характеристика душности погоды. При расчете учитывается влияние влажности воздуха и скорости ветра на теплоощущения человека.
Tes - Эффективная температура на солнце - температура, которую ощущает человек, с поправкой на солнечный нагрев. Характеристика знойности погоды. Зависит от высоты солнца над горизонтом, облачности и скорости ветра. Ночью, в пасмурную погоду, а также при ветре 12 м/с и более поправка равна нулю.
P - Атмосферное давление - приведенное к уровню моря атмосферное давление.
Po - Атмосферное давление - измеренное на уровне метеостанции атмосферное давление.
Tmin - Минимальная температура - минимум температуры воздуха на высоте 2 м над землей.
Tmax - Максимальная температура - максимум температуры воздуха на высоте 2 м над землей.
R - Количество осадков - Количество выпавших осадков за период времени, мм. При наведении курсора мыши на число - период времени, за который выпало указанное количество осадков.
R24 - Количество осадков - Количество выпавших осадков за 24 часа, мм.
S - Снежный покров - Высота снежного покрова, см. При наведении курсора мыши на число - состояние снежного покрова и степень покрытия местности в баллах.